WetterOnline ( https://www.wetteronline.de )

Wetter aktuell Seelow

Aktuelles Wetter: Manschnow (16m)

6-stündlich | Neueste Meldungen
Ortszeit Temperatur Wetter
Mo, 06.12. 19:00 0.5° C bedeckt
Mo, 06.12. 13:00 1.6° C bedeckt
Mo, 06.12. 7:00 0.3° C bedeckt
Mo, 06.12. 1:00 0.6° C bedeckt
So, 05.12. 19:00 0.4° C Regen
So, 05.12. 13:00 0.5° C bedeckt
So, 05.12. 7:00 -0.1° C leichter Schneefall
So, 05.12. 1:00 0.6° C bedeckt
Ortszeit Temperatur Wetter
Mo, 06.12. 19:00 0.5° C bedeckt
Mo, 06.12. 18:50 0.5° C bedeckt
Mo, 06.12. 18:40 0.5° C Schneegriesel
Mo, 06.12. 18:30 0.6° C bedeckt
Mo, 06.12. 18:20 0.6° C bedeckt
Mo, 06.12. 18:10 0.6° C bedeckt
Mo, 06.12. 18:00 0.7° C bedeckt
Mo, 06.12. 17:30 0.8° C bedeckt
Mo, 06.12. 17:00 0.9° C bedeckt
Mo, 06.12. 16:30 1.0° C bedeckt
Mo, 06.12. 16:00 1.1° C bedeckt
Ortszeit Relative Feuchte Sichtweite
Mo, 06.12. 19:00 92% 12 km
Mo, 06.12. 13:00 85% 26 km
Mo, 06.12. 7:00 90% 9 km
Mo, 06.12. 1:00 90% 8 km
So, 05.12. 19:00 94% 2.7 km
So, 05.12. 13:00 92% 4.5 km
So, 05.12. 7:00 96% 1.8 km
So, 05.12. 1:00 90% 13 km
Ortszeit Relative Feuchte Sichtweite
Mo, 06.12. 19:00 92% 12 km
Mo, 06.12. 18:50 92% -
Mo, 06.12. 18:40 92% -
Mo, 06.12. 18:30 91% 11 km
Mo, 06.12. 18:20 91% -
Mo, 06.12. 18:10 91% -
Mo, 06.12. 18:00 91% 13 km
Mo, 06.12. 17:30 91% 13 km
Mo, 06.12. 17:00 90% 13 km
Mo, 06.12. 16:30 89% 17 km
Mo, 06.12. 16:00 88% 19 km
Ortszeit Niederschlagsmenge Niederschlagsart
Mo, 06.12. 19:00 0.1 l/m2 in 12 Std. Schnee
Mo, 06.12. 13:00 0.0 l/m2 in 6 Std. -
Mo, 06.12. 7:00 0.1 l/m2 in 12 Std. -
Mo, 06.12. 1:00 0.1 l/m2 in 6 Std. Schnee, Regen
So, 05.12. 19:00 0.1 l/m2 in 12 Std. Schnee, Sprühregen
So, 05.12. 13:00 0.1 l/m2 in 6 Std. Schnee, Regen
So, 05.12. 7:00 2 l/m2 in 12 Std. Schnee, Sprühregen
So, 05.12. 1:00 0.0 l/m2 in 6 Std. -
Ortszeit Niederschlagsmenge Niederschlagsart
Mo, 06.12. 19:00 0.1 l/m2 in 1 Std. Schnee
Mo, 06.12. 18:50 keine Meldung -
Mo, 06.12. 18:40 keine Meldung -
Mo, 06.12. 18:30 0.1 l/m2 in 1 Std. Schnee
Mo, 06.12. 18:20 keine Meldung -
Mo, 06.12. 18:10 keine Meldung -
Mo, 06.12. 18:00 0.0 l/m2 in 1 Std. -
Mo, 06.12. 17:30 0.0 l/m2 in 1 Std. -
Mo, 06.12. 17:00 0.0 l/m2 in 1 Std. -
Mo, 06.12. 16:30 0.0 l/m2 in 1 Std. -
Mo, 06.12. 16:00 0.0 l/m2 in 1 Std. -
Ortszeit Stärke Spitze Richtung
km/h Bft. km/h Grad Sektor
Mo, 06.12. 19:00 0 0 11 - -
Mo, 06.12. 13:00 4 1 14 40° NO
Mo, 06.12. 7:00 7 2 22 20° N
Mo, 06.12. 1:00 9 2 19 50° NO
So, 05.12. 19:00 2 1 15 360° N
So, 05.12. 13:00 4 1 18 40° NO
So, 05.12. 7:00 9 2 22 80° O
So, 05.12. 1:00 13 3 22 90° O
Ortszeit Stärke Spitze Richtung
km/h Bft. km/h Grad Sektor
Mo, 06.12. 19:00 0 0 7 - -
Mo, 06.12. 18:50 2 1 - 60° NO
Mo, 06.12. 18:40 4 1 - 80° O
Mo, 06.12. 18:30 4 1 7 40° NO
Mo, 06.12. 18:20 4 1 - 40° NO
Mo, 06.12. 18:10 4 1 - 40° NO
Mo, 06.12. 18:00 4 1 7 60° NO
Mo, 06.12. 17:30 4 1 4 10° N
Mo, 06.12. 17:00 4 1 7 20° N
Mo, 06.12. 16:30 4 1 7 10° N
Mo, 06.12. 16:00 4 1 7 10° N
Ortszeit Untergrenze Bedeckung Gattung
total tief tief mittel hoch
Mo, 06.12. 19:00 1170 m 8/8 8/8 - - -
Mo, 06.12. 13:00 360 m 8/8 8/8 - - -
Mo, 06.12. 7:00 540 m 8/8 8/8 - - -
Mo, 06.12. 1:00 270 m 8/8 8/8 - - -
So, 05.12. 19:00 180 m 8/8 8/8 - - -
So, 05.12. 13:00 150 m 8/8 8/8 - - -
So, 05.12. 7:00 90 m 8/8 8/8 - - -
So, 05.12. 1:00 1080 m 8/8 8/8 - - -
Ortszeit Bedeckungsgrad in Achtel und Wolkenuntergrenze
Mo, 06.12. 19:00 8(1170m)
Mo, 06.12. 18:50 8(1170m)
Mo, 06.12. 18:40 8(1170m)
Mo, 06.12. 18:30 8(1200m)
Mo, 06.12. 18:20 8(1200m)
Mo, 06.12. 18:10 8(1200m)
Mo, 06.12. 18:00 8(1200m)
Mo, 06.12. 17:30 1(540m) 8(1200m)
Mo, 06.12. 17:00 1(270m) 8(1230m)
Mo, 06.12. 16:30 3(300m) 4(540m) 8(1320m)
Mo, 06.12. 16:00 2(420m) 4(600m) 8(1410m)
Ortszeit Luftdruck NN (hPa) Tendenz (hPa in 3 Std.)
Mo, 06.12. 19:00 1016 + 0,1
Mo, 06.12. 13:00 1016 + 0,1
Mo, 06.12. 7:00 1015 + 1,8
Mo, 06.12. 1:00 1011 + 1,0
So, 05.12. 19:00 1008 + 1,6
So, 05.12. 13:00 1005 + 1,3
So, 05.12. 7:00 1001 + 1,4
So, 05.12. 1:00 1000 0,0
Ortszeit Luftdruck NN (hPa) Tendenz (hPa in 3 Std.)
Mo, 06.12. 19:00 1016 + 0,1
Mo, 06.12. 18:50 1016 keine Meldung
Mo, 06.12. 18:40 1016 keine Meldung
Mo, 06.12. 18:30 1016 + 0,4
Mo, 06.12. 18:20 1016 keine Meldung
Mo, 06.12. 18:10 1016 keine Meldung
Mo, 06.12. 18:00 1016 + 0,1
Mo, 06.12. 17:30 1016 + 0,3
Mo, 06.12. 17:00 1016 + 0,4
Mo, 06.12. 16:30 1016 + 0,4
Mo, 06.12. 16:00 1016 + 0,1
Ortszeit Schneehöhe (cm)
Mo, 06.12. 19:00 0
Mo, 06.12. 13:00 0
Mo, 06.12. 7:00 0
Mo, 06.12. 1:00 0
So, 05.12. 19:00 -
So, 05.12. 13:00 2
So, 05.12. 7:00 2
So, 05.12. 1:00 0
Ortszeit Schneehöhe (cm)
Mo, 06.12. 19:00 0
Mo, 06.12. 18:50 0
Mo, 06.12. 18:40 0
Mo, 06.12. 18:30 0
Mo, 06.12. 18:20 0
Mo, 06.12. 18:10 0
Mo, 06.12. 18:00 0
Mo, 06.12. 17:30 0
Mo, 06.12. 17:00 0
Mo, 06.12. 16:30 0
Mo, 06.12. 16:00 0
Link zu dieser Seite / Seite empfehlen

Das Wetter in ...